SYR101 DTTA-OSDI

Flight info

Callsign SYR101
Flight time 2h 42m
Altitude 37000
Route DIDON2A DIDON UM978 SONAK M978 DOBIX DCT DEMAG UM978 TOSKA M978 LCA M601 BALMA UR655 LEBOR
Aircraft A359/H-SDE2E3GHIJ3J4J5LM1ORWXY/LB1D1

Departure

Time 2026-04-23 14:09
Airport Tunis Carthage International Airport (DTTA)

Arrival

Time 2026-04-23 16:52
Airport Damascus International Airport (OSDI)
Time Latitude Longitude Altitude Speed Heading
2026-04-23 13:52 36.84260 10.22028 37 ft 0 kts 103°
2026-04-23 14:00 36.84262 10.22018 37 ft 4 kts 103°
2026-04-23 14:01 36.84268 10.21987 33 ft 2 kts 103°
2026-04-23 14:01 36.84275 10.21961 33 ft 4 kts 136°
2026-04-23 14:01 36.84297 10.21948 35 ft 4 kts 181°
2026-04-23 14:01 36.84323 10.21953 33 ft 2 kts 193°
2026-04-23 14:02 36.84325 10.21953 33 ft 0 kts 193°
2026-04-23 14:05 36.84324 10.21953 33 ft 1 kts 193°
2026-04-23 14:05 36.84298 10.21945 35 ft 6 kts 193°
2026-04-23 14:05 36.84249 10.21932 35 ft 9 kts 192°
2026-04-23 14:05 36.84179 10.21912 37 ft 12 kts 192°
2026-04-23 14:06 36.84088 10.21888 37 ft 15 kts 192°
2026-04-23 14:06 36.83976 10.21859 36 ft 18 kts 192°
2026-04-23 14:06 36.83900 10.21913 36 ft 14 kts 103°
2026-04-23 14:06 36.83878 10.22045 36 ft 17 kts 100°
2026-04-23 14:07 36.83869 10.22194 37 ft 16 kts 80°
2026-04-23 14:07 36.83875 10.22223 37 ft 0 kts 72°
2026-04-23 14:08 36.83881 10.22242 37 ft 6 kts 69°
2026-04-23 14:08 36.83911 10.22304 37 ft 11 kts 52°
2026-04-23 14:08 36.83968 10.22389 37 ft 13 kts 35°
2026-04-23 14:08 36.84107 10.22427 38 ft 45 kts 12°
2026-04-23 14:09 36.84665 10.22579 35 ft 116 kts 12°
2026-04-23 14:09 36.85638 10.22840 203 ft 159 kts 11°
2026-04-23 14:09 36.86725 10.23132 975 ft 159 kts 13°
2026-04-23 14:09 36.87854 10.23445 1515 ft 179 kts 14°
2026-04-23 14:10 36.89156 10.23839 1948 ft 205 kts 15°
2026-04-23 14:10 36.90615 10.24291 2512 ft 223 kts 14°
2026-04-23 14:10 36.92112 10.24680 3601 ft 214 kts 11°
2026-04-23 14:10 36.93544 10.25041 4650 ft 208 kts 10°
2026-04-23 14:11 36.94995 10.25151 5474 ft 210 kts 351°
2026-04-23 14:11 36.96333 10.24490 6334 ft 208 kts 323°
2026-04-23 14:11 36.97248 10.23099 7182 ft 211 kts 296°
2026-04-23 14:11 36.97514 10.21300 7970 ft 216 kts 270°
2026-04-23 14:12 36.97013 10.19500 8591 ft 228 kts 241°
2026-04-23 14:12 36.95757 10.18204 9194 ft 246 kts 209°
2026-04-23 14:12 36.94017 10.17957 9770 ft 262 kts 173°
2026-04-23 14:12 36.92258 10.18569 10306 ft 271 kts 163°
2026-04-23 14:13 36.90554 10.19737 10596 ft 292 kts 141°
2026-04-23 14:13 36.89267 10.21819 10912 ft 316 kts 116°
2026-04-23 14:13 36.88388 10.24429 11295 ft 337 kts 105°
2026-04-23 14:13 36.87750 10.27340 11675 ft 358 kts 100°
2026-04-23 14:14 36.87205 10.30464 12064 ft 378 kts 99°
2026-04-23 14:14 36.86655 10.33741 12640 ft 391 kts 99°
2026-04-23 14:14 36.86061 10.37085 13416 ft 397 kts 100°
2026-04-23 14:14 36.85417 10.40466 14171 ft 404 kts 101°
2026-04-23 14:15 36.84730 10.43891 14861 ft 409 kts 101°
2026-04-23 14:15 36.84013 10.47350 15571 ft 415 kts 102°
2026-04-23 14:15 36.83276 10.50851 16284 ft 419 kts 102°
2026-04-23 14:15 36.82524 10.54402 17003 ft 424 kts 102°
2026-04-23 14:16 36.81765 10.57984 17726 ft 429 kts 102°
2026-04-23 14:16 36.80999 10.61604 18389 ft 435 kts 102°
2026-04-23 14:16 36.80223 10.65281 18997 ft 440 kts 102°
2026-04-23 14:16 36.79438 10.68990 19655 ft 444 kts 102°
2026-04-23 14:17 36.78644 10.72742 20328 ft 449 kts 102°
2026-04-23 14:17 36.77853 10.76476 21006 ft 453 kts 102°
2026-04-23 14:17 36.77043 10.80294 21668 ft 458 kts 102°
2026-04-23 14:17 36.76224 10.84151 22324 ft 462 kts 102°
2026-04-23 14:18 36.75394 10.88047 22980 ft 467 kts 102°
2026-04-23 14:18 36.74553 10.91986 23623 ft 471 kts 102°
2026-04-23 14:18 36.73706 10.95952 24164 ft 476 kts 102°
2026-04-23 14:18 36.72847 10.99961 24678 ft 481 kts 102°
2026-04-23 14:19 36.71979 11.04007 25198 ft 485 kts 103°
2026-04-23 14:19 36.71104 11.08078 25783 ft 488 kts 103°
2026-04-23 14:19 36.70222 11.12173 26303 ft 492 kts 103°
2026-04-23 14:19 36.69330 11.16306 26826 ft 496 kts 103°
2026-04-23 14:20 36.68431 11.20472 27314 ft 500 kts 103°
2026-04-23 14:20 36.67520 11.24677 27825 ft 505 kts 103°
2026-04-23 14:20 36.66601 11.28915 28332 ft 509 kts 103°
2026-04-23 14:20 36.65674 11.33183 28818 ft 513 kts 103°
2026-04-23 14:21 36.64736 11.37492 29273 ft 518 kts 103°
2026-04-23 14:21 36.63788 11.41840 29753 ft 522 kts 103°
2026-04-23 14:21 36.62843 11.46164 30210 ft 526 kts 103°
2026-04-23 14:21 36.61880 11.50564 30572 ft 529 kts 103°
2026-04-23 14:22 36.60956 11.55016 30966 ft 532 kts 102°
2026-04-23 14:22 36.60102 11.59495 31343 ft 534 kts 101°
2026-04-23 14:22 36.59273 11.64009 31707 ft 536 kts 100°
2026-04-23 14:22 36.58442 11.68548 32086 ft 539 kts 100°
2026-04-23 14:23 36.57600 11.73110 32334 ft 544 kts 101°
2026-04-23 14:23 36.56739 11.77709 32632 ft 547 kts 101°
2026-04-23 14:23 36.55865 11.82323 32988 ft 548 kts 101°
2026-04-23 14:23 36.54983 11.86934 33474 ft 547 kts 101°
2026-04-23 14:24 36.54101 11.91518 33987 ft 545 kts 101°
2026-04-23 14:24 36.53216 11.96099 34389 ft 543 kts 101°
2026-04-23 14:24 36.52335 12.00659 34760 ft 542 kts 101°
2026-04-23 14:24 36.51453 12.05210 35149 ft 541 kts 101°
2026-04-23 14:25 36.50576 12.09763 35466 ft 541 kts 100°
2026-04-23 14:25 36.49965 12.14365 35780 ft 538 kts 93°
2026-04-23 14:25 36.49552 12.18988 36125 ft 536 kts 92°
2026-04-23 14:25 36.49198 12.23528 36468 ft 535 kts 91°
2026-04-23 14:26 36.48868 12.28132 36800 ft 534 kts 91°
2026-04-23 14:26 36.48548 12.32737 37035 ft 535 kts 91°
2026-04-23 14:26 36.47908 12.41923 37073 ft 533 kts 91°
2026-04-23 14:27 36.47246 12.51137 37059 ft 534 kts 91°
2026-04-23 14:27 36.46568 12.60347 37058 ft 535 kts 91°
2026-04-23 14:28 36.45884 12.69495 37050 ft 535 kts 91°
2026-04-23 14:28 36.45190 12.78705 37061 ft 535 kts 91°
2026-04-23 14:29 36.44488 12.87922 37050 ft 536 kts 91°
2026-04-23 14:29 36.43778 12.97156 37048 ft 536 kts 91°
2026-04-23 14:30 36.43061 13.06377 37048 ft 536 kts 91°
2026-04-23 14:30 36.42343 13.15535 37058 ft 537 kts 92°
2026-04-23 14:31 36.41611 13.24765 37048 ft 537 kts 92°
2026-04-23 14:31 36.40872 13.34002 37048 ft 537 kts 92°
2026-04-23 14:32 36.40250 13.41704 37050 ft 537 kts 92°
2026-04-23 14:32 36.39497 13.50943 37059 ft 538 kts 92°
2026-04-23 14:33 36.38737 13.60181 37053 ft 538 kts 92°
2026-04-23 14:33 36.37969 13.69426 37049 ft 539 kts 92°
2026-04-23 14:34 36.37197 13.78627 37049 ft 539 kts 92°
2026-04-23 14:34 36.36413 13.87895 37063 ft 539 kts 92°
2026-04-23 14:35 36.35622 13.97165 37047 ft 541 kts 92°
2026-04-23 14:35 36.34821 14.06452 37053 ft 541 kts 93°
2026-04-23 14:36 36.34013 14.15739 37043 ft 541 kts 93°
2026-04-23 14:36 36.33197 14.25029 37057 ft 541 kts 93°
2026-04-23 14:37 36.32375 14.34312 37043 ft 542 kts 93°
2026-04-23 14:37 36.31550 14.43538 37045 ft 542 kts 93°
2026-04-23 14:38 36.30712 14.52826 37045 ft 542 kts 93°
2026-04-23 14:38 36.29868 14.62108 37049 ft 542 kts 93°
2026-04-23 14:39 36.29016 14.71401 37047 ft 542 kts 93°
2026-04-23 14:39 36.28156 14.80694 37051 ft 542 kts 93°
2026-04-23 14:40 36.27290 14.89974 37045 ft 542 kts 94°
2026-04-23 14:40 36.26422 14.99190 37046 ft 542 kts 94°
2026-04-23 14:41 36.25537 15.08516 37046 ft 541 kts 94°
2026-04-23 14:41 36.24656 15.17713 37047 ft 541 kts 94°
2026-04-23 14:42 36.23763 15.26972 37040 ft 541 kts 94°
2026-04-23 14:42 36.22862 15.36232 37040 ft 542 kts 94°
2026-04-23 14:43 36.21952 15.45517 37039 ft 543 kts 94°
2026-04-23 14:43 36.21033 15.54807 37040 ft 543 kts 94°
2026-04-23 14:44 36.20106 15.64104 37040 ft 544 kts 94°
2026-04-23 14:44 36.19176 15.73362 37039 ft 546 kts 94°
2026-04-23 14:45 36.18230 15.82701 37037 ft 546 kts 95°
2026-04-23 14:45 36.17278 15.92028 37037 ft 546 kts 95°
2026-04-23 14:46 36.16316 16.01379 37042 ft 547 kts 95°
2026-04-23 14:46 36.15348 16.10712 37031 ft 547 kts 95°
2026-04-23 14:47 36.14373 16.20048 37031 ft 547 kts 95°
2026-04-23 14:47 36.13395 16.29332 37031 ft 547 kts 95°
2026-04-23 14:48 36.12406 16.38658 37028 ft 547 kts 95°
2026-04-23 14:48 36.11409 16.47985 37026 ft 547 kts 95°
2026-04-23 14:49 36.10405 16.57308 37023 ft 547 kts 95°
2026-04-23 14:49 36.09394 16.66631 37020 ft 547 kts 95°
2026-04-23 14:50 36.08375 16.75952 37021 ft 547 kts 96°
2026-04-23 14:50 36.07350 16.85257 37021 ft 546 kts 96°
2026-04-23 14:51 36.06325 16.94507 37019 ft 546 kts 96°
2026-04-23 14:51 36.05285 17.03815 37022 ft 547 kts 96°
2026-04-23 14:52 36.04239 17.13111 37020 ft 546 kts 96°
2026-04-23 14:52 36.03185 17.22413 37017 ft 546 kts 96°
2026-04-23 14:53 36.02125 17.31707 37018 ft 546 kts 96°
2026-04-23 14:53 36.01059 17.40989 37023 ft 546 kts 97°
2026-04-23 14:54 35.99985 17.50263 37008 ft 546 kts 97°
2026-04-23 14:54 35.98904 17.59541 37011 ft 546 kts 97°
2026-04-23 14:55 35.97816 17.68821 37007 ft 546 kts 97°
2026-04-23 14:55 35.96726 17.78048 37005 ft 546 kts 97°
2026-04-23 14:56 35.95626 17.87303 37002 ft 545 kts 97°
2026-04-23 14:56 35.94517 17.96565 37003 ft 545 kts 97°
2026-04-23 14:57 35.93400 18.05829 36999 ft 545 kts 97°
2026-04-23 14:57 35.92277 18.15086 37000 ft 545 kts 97°
2026-04-23 14:58 35.91155 18.24277 36997 ft 545 kts 97°
2026-04-23 14:58 35.90011 18.33585 36994 ft 545 kts 98°
2026-04-23 14:59 35.88874 18.42773 37001 ft 545 kts 98°
2026-04-23 14:59 35.87723 18.52017 36994 ft 545 kts 98°
2026-04-23 15:00 35.86566 18.61248 36993 ft 545 kts 98°
2026-04-23 15:00 35.85401 18.70489 36994 ft 545 kts 98°
2026-04-23 15:01 35.84230 18.79718 36978 ft 545 kts 98°
2026-04-23 15:01 35.83052 18.88937 36989 ft 545 kts 98°
2026-04-23 15:02 35.81864 18.98179 36991 ft 545 kts 99°
2026-04-23 15:02 35.80670 19.07413 36987 ft 545 kts 99°
2026-04-23 15:03 35.79478 19.16573 36989 ft 545 kts 99°
2026-04-23 15:03 35.78271 19.25790 36969 ft 544 kts 99°
2026-04-23 15:04 35.77060 19.34985 36969 ft 544 kts 99°
2026-04-23 15:04 35.75841 19.44183 36981 ft 544 kts 99°
2026-04-23 15:05 35.74614 19.53386 36980 ft 543 kts 100°
2026-04-23 15:05 35.73390 19.62506 36981 ft 543 kts 100°
2026-04-23 15:06 35.72154 19.71668 36973 ft 543 kts 100°
2026-04-23 15:06 35.70909 19.80840 36956 ft 543 kts 100°
2026-04-23 15:07 35.69655 19.90027 36971 ft 543 kts 100°
2026-04-23 15:07 35.68396 19.99193 36967 ft 543 kts 100°
2026-04-23 15:08 35.67131 20.08350 36966 ft 543 kts 100°
2026-04-23 15:09 35.65220 20.22083 36969 ft 543 kts 101°
2026-04-23 15:09 35.63936 20.31249 36971 ft 544 kts 101°
2026-04-23 15:10 35.62864 20.38855 36962 ft 544 kts 101°
2026-04-23 15:10 35.61355 20.49506 36956 ft 543 kts 101°
2026-04-23 15:11 35.60053 20.58644 36960 ft 543 kts 101°
2026-04-23 15:11 35.58740 20.67802 36961 ft 543 kts 101°
2026-04-23 15:12 35.57421 20.76953 36963 ft 543 kts 101°
2026-04-23 15:12 35.56105 20.86031 36961 ft 543 kts 101°
2026-04-23 15:13 35.54775 20.95159 36956 ft 543 kts 101°
2026-04-23 15:13 35.53438 21.04282 36954 ft 543 kts 101°
2026-04-23 15:14 35.52095 21.13394 36955 ft 543 kts 101°
2026-04-23 15:14 35.50887 21.22537 36951 ft 543 kts 98°
2026-04-23 15:15 35.49987 21.31743 36955 ft 542 kts 97°
2026-04-23 15:15 35.49092 21.40937 36955 ft 542 kts 98°
2026-04-23 15:16 35.48138 21.50123 36952 ft 542 kts 98°
2026-04-23 15:16 35.47157 21.59254 36953 ft 542 kts 98°
2026-04-23 15:17 35.46157 21.68449 36952 ft 542 kts 98°
2026-04-23 15:17 35.45155 21.77618 36952 ft 543 kts 98°
2026-04-23 15:18 35.44145 21.86802 36943 ft 544 kts 99°
2026-04-23 15:18 35.43130 21.95982 36962 ft 543 kts 99°
2026-04-23 15:19 35.42280 22.03611 36953 ft 543 kts 99°
2026-04-23 15:19 35.41084 22.14272 36956 ft 543 kts 99°
2026-04-23 15:20 35.40215 22.21966 36948 ft 545 kts 99°
2026-04-23 15:20 35.39168 22.31177 36945 ft 545 kts 99°
2026-04-23 15:21 35.38119 22.40319 36954 ft 545 kts 99°
2026-04-23 15:21 35.37060 22.49525 36951 ft 545 kts 99°
2026-04-23 15:22 35.35995 22.58733 36951 ft 546 kts 99°
2026-04-23 15:22 35.34921 22.67940 36945 ft 546 kts 99°
2026-04-23 15:23 35.33838 22.77158 36939 ft 546 kts 99°
2026-04-23 15:23 35.32758 22.86298 36939 ft 545 kts 99°
2026-04-23 15:24 35.31663 22.95488 36941 ft 545 kts 99°
2026-04-23 15:24 35.30561 23.04687 36934 ft 545 kts 99°
2026-04-23 15:25 35.29454 23.13867 36943 ft 546 kts 99°
2026-04-23 15:25 35.28336 23.23072 36927 ft 546 kts 100°
2026-04-23 15:26 35.27211 23.32274 36926 ft 546 kts 100°
2026-04-23 15:26 35.26089 23.41404 36917 ft 546 kts 100°
2026-04-23 15:27 35.24950 23.50600 36919 ft 546 kts 100°
2026-04-23 15:27 35.23805 23.59795 36930 ft 546 kts 100°
2026-04-23 15:28 35.22772 23.69016 36933 ft 547 kts 95°
2026-04-23 15:28 35.22203 23.78304 36922 ft 547 kts 95°
2026-04-23 15:29 35.21708 23.87574 36925 ft 546 kts 95°
2026-04-23 15:29 35.21215 23.96846 36929 ft 546 kts 95°
2026-04-23 15:30 35.20708 24.06082 36935 ft 546 kts 95°
2026-04-23 15:30 35.20189 24.15338 36931 ft 545 kts 95°
2026-04-23 15:31 35.19662 24.24587 36931 ft 546 kts 95°
2026-04-23 15:31 35.19127 24.33856 36949 ft 546 kts 95°
2026-04-23 15:32 35.18585 24.43120 36938 ft 546 kts 95°
2026-04-23 15:32 35.18040 24.52328 36936 ft 546 kts 95°
2026-04-23 15:33 35.17484 24.61591 36943 ft 546 kts 95°
2026-04-23 15:33 35.16922 24.70851 36945 ft 547 kts 95°
2026-04-23 15:34 35.16336 24.80109 36942 ft 546 kts 95°
2026-04-23 15:34 35.15740 24.89379 36950 ft 546 kts 95°
2026-04-23 15:35 35.15146 24.98647 36951 ft 546 kts 95°
2026-04-23 15:35 35.14553 25.07845 36946 ft 545 kts 96°
2026-04-23 15:36 35.13951 25.17067 36950 ft 544 kts 96°
2026-04-23 15:36 35.13342 25.26299 36945 ft 544 kts 96°
2026-04-23 15:37 35.12726 25.35533 36943 ft 545 kts 96°
2026-04-23 15:37 35.12103 25.44757 36949 ft 545 kts 96°
2026-04-23 15:38 35.11474 25.53988 36936 ft 545 kts 96°
2026-04-23 15:38 35.10839 25.63205 36941 ft 545 kts 96°
2026-04-23 15:39 35.10195 25.72430 36949 ft 544 kts 96°
2026-04-23 15:39 35.09548 25.81599 36935 ft 544 kts 96°
2026-04-23 15:40 35.08893 25.90806 36929 ft 544 kts 96°
2026-04-23 15:40 35.08229 26.00012 36936 ft 544 kts 96°
2026-04-23 15:41 35.07557 26.09235 36935 ft 545 kts 96°
2026-04-23 15:41 35.06881 26.18432 36929 ft 544 kts 96°
2026-04-23 15:42 35.06503 26.27667 36927 ft 545 kts 91°
2026-04-23 15:42 35.06513 26.36935 36928 ft 546 kts 90°
2026-04-23 15:43 35.06495 26.46199 36931 ft 547 kts 91°
2026-04-23 15:43 35.06398 26.55479 36929 ft 546 kts 91°
2026-04-23 15:44 35.06263 26.64713 36925 ft 547 kts 92°
2026-04-23 15:44 35.06117 26.74021 36925 ft 548 kts 92°
2026-04-23 15:45 35.05966 26.83323 36920 ft 548 kts 92°
2026-04-23 15:45 35.05811 26.92624 36921 ft 547 kts 92°
2026-04-23 15:46 35.05649 27.01911 36914 ft 547 kts 92°
2026-04-23 15:46 35.05485 27.11207 36914 ft 547 kts 92°
2026-04-23 15:47 35.05312 27.20416 36906 ft 547 kts 92°
2026-04-23 15:47 35.05127 27.29688 36911 ft 547 kts 92°
2026-04-23 15:48 35.04935 27.38961 36907 ft 547 kts 92°
2026-04-23 15:48 35.04737 27.48241 36905 ft 547 kts 92°
2026-04-23 15:49 35.04532 27.57526 36907 ft 548 kts 92°
2026-04-23 15:49 35.04320 27.66839 36909 ft 548 kts 92°
2026-04-23 15:50 35.04100 27.76146 36904 ft 548 kts 92°
2026-04-23 15:50 35.03873 27.85446 36903 ft 548 kts 92°
2026-04-23 15:51 35.03639 27.94760 36906 ft 548 kts 92°
2026-04-23 15:51 35.03400 28.03999 36905 ft 548 kts 92°
2026-04-23 15:52 35.03152 28.13299 36903 ft 549 kts 93°
2026-04-23 15:52 35.02897 28.22609 36903 ft 549 kts 93°
2026-04-23 15:53 35.02634 28.31935 36897 ft 549 kts 93°
2026-04-23 15:53 35.02365 28.41242 36896 ft 549 kts 93°
2026-04-23 15:54 35.02088 28.50543 36895 ft 548 kts 93°
2026-04-23 15:54 35.01806 28.59789 36899 ft 548 kts 93°
2026-04-23 15:55 35.01516 28.69084 36892 ft 548 kts 93°
2026-04-23 15:55 35.01219 28.78358 36898 ft 547 kts 93°
2026-04-23 15:56 35.00915 28.87632 36908 ft 547 kts 93°
2026-04-23 15:56 35.00605 28.96904 36887 ft 547 kts 94°
2026-04-23 15:57 35.00288 29.06118 36897 ft 547 kts 94°
2026-04-23 15:57 34.99964 29.15383 36897 ft 547 kts 94°
2026-04-23 15:58 34.99632 29.24655 36897 ft 547 kts 94°
2026-04-23 15:58 34.99292 29.33937 36895 ft 546 kts 94°
2026-04-23 15:59 34.98947 29.43187 36895 ft 546 kts 94°
2026-04-23 15:59 34.98594 29.52451 36894 ft 546 kts 94°
2026-04-23 16:00 34.98235 29.61697 36895 ft 546 kts 94°
2026-04-23 16:00 34.97868 29.70939 36899 ft 546 kts 94°
2026-04-23 16:01 34.97497 29.80128 36899 ft 546 kts 94°
2026-04-23 16:01 34.97117 29.89362 36914 ft 545 kts 94°
2026-04-23 16:02 34.96730 29.98622 36897 ft 546 kts 94°
2026-04-23 16:02 34.96459 30.07884 36898 ft 546 kts 92°
2026-04-23 16:03 34.96404 30.17149 36896 ft 546 kts 91°
2026-04-23 16:03 34.96342 30.26334 36898 ft 545 kts 91°
2026-04-23 16:04 34.96235 30.35573 36897 ft 545 kts 92°
2026-04-23 16:04 34.96104 30.44826 36891 ft 545 kts 92°
2026-04-23 16:05 34.95987 30.52491 36909 ft 544 kts 92°
2026-04-23 16:05 34.95816 30.63277 36896 ft 544 kts 92°
2026-04-23 16:06 34.95690 30.70940 36895 ft 544 kts 92°
2026-04-23 16:06 34.95506 30.81670 36898 ft 545 kts 92°
2026-04-23 16:07 34.95367 30.89421 36900 ft 546 kts 92°
2026-04-23 16:07 34.95195 30.98680 36896 ft 546 kts 92°
2026-04-23 16:08 34.95017 31.07862 36902 ft 545 kts 92°
2026-04-23 16:08 34.94831 31.17106 36903 ft 545 kts 92°
2026-04-23 16:09 34.94638 31.26332 36898 ft 544 kts 92°
2026-04-23 16:09 34.94437 31.35572 36900 ft 544 kts 93°
2026-04-23 16:10 34.94231 31.44793 36900 ft 544 kts 93°
2026-04-23 16:10 34.94018 31.53961 36896 ft 544 kts 93°
2026-04-23 16:11 34.93798 31.63178 36907 ft 544 kts 93°
2026-04-23 16:11 34.93570 31.72413 36905 ft 545 kts 93°
2026-04-23 16:12 34.93335 31.81638 36899 ft 545 kts 93°
2026-04-23 16:12 34.93093 31.90871 36902 ft 544 kts 93°
2026-04-23 16:13 34.92844 32.00106 36918 ft 544 kts 93°
2026-04-23 16:13 34.92462 32.13874 36907 ft 544 kts 93°
2026-04-23 16:14 34.92361 32.23080 36929 ft 543 kts 91°
2026-04-23 16:14 34.92346 32.32341 36931 ft 543 kts 91°
2026-04-23 16:15 34.92306 32.41493 36939 ft 543 kts 91°
2026-04-23 16:15 34.92236 32.50693 36935 ft 542 kts 91°
2026-04-23 16:16 34.92151 32.59893 36925 ft 543 kts 92°
2026-04-23 16:16 34.92059 32.69082 36932 ft 542 kts 92°
2026-04-23 16:17 34.91932 32.78265 36928 ft 542 kts 94°
2026-04-23 16:17 34.91490 32.87374 36926 ft 541 kts 95°
2026-04-23 16:18 34.90957 32.96515 36916 ft 540 kts 95°
2026-04-23 16:18 34.90462 33.05654 36914 ft 540 kts 95°
2026-04-23 16:19 34.89989 33.14790 36916 ft 540 kts 95°
2026-04-23 16:19 34.89487 33.23927 36910 ft 540 kts 95°
2026-04-23 16:20 34.88975 33.33065 36907 ft 540 kts 95°
2026-04-23 16:20 34.88459 33.42194 36912 ft 541 kts 95°
2026-04-23 16:21 34.87938 33.51325 36908 ft 541 kts 95°
2026-04-23 16:21 34.87351 33.60397 36910 ft 539 kts 100°
2026-04-23 16:22 34.85533 33.69211 36905 ft 536 kts 110°
2026-04-23 16:22 34.83251 33.77873 36901 ft 537 kts 111°
2026-04-23 16:23 34.80893 33.86516 36906 ft 537 kts 111°
2026-04-23 16:23 34.78562 33.95097 36900 ft 538 kts 111°
2026-04-23 16:24 34.76232 34.03743 36904 ft 538 kts 111°
2026-04-23 16:24 34.73894 34.12396 36902 ft 538 kts 111°
2026-04-23 16:25 34.71543 34.21041 36902 ft 538 kts 111°
2026-04-23 16:25 34.69187 34.29629 36909 ft 537 kts 111°
2026-04-23 16:26 34.66819 34.38245 36911 ft 537 kts 111°
2026-04-23 16:26 34.64448 34.46854 36911 ft 537 kts 111°
2026-04-23 16:27 34.62075 34.55449 36911 ft 537 kts 111°
2026-04-23 16:27 34.59692 34.64051 36914 ft 537 kts 111°
2026-04-23 16:28 34.57304 34.72645 36917 ft 537 kts 112°
2026-04-23 16:28 34.54924 34.81184 36917 ft 537 kts 112°
2026-04-23 16:29 34.52525 34.89764 36919 ft 537 kts 112°
2026-04-23 16:29 34.50121 34.98339 36919 ft 537 kts 112°
2026-04-23 16:30 34.47714 35.06904 36925 ft 537 kts 112°
2026-04-23 16:30 34.45329 35.15489 36924 ft 537 kts 111°
2026-04-23 16:31 34.42951 35.24058 36920 ft 537 kts 112°
2026-04-23 16:31 34.40565 35.32620 36923 ft 536 kts 112°
2026-04-23 16:32 34.38187 35.41117 36923 ft 536 kts 112°
2026-04-23 16:32 34.35786 35.49668 36925 ft 536 kts 112°
2026-04-23 16:33 34.33381 35.58205 36928 ft 535 kts 112°
2026-04-23 16:33 34.30992 35.66754 36926 ft 536 kts 110°
2026-04-23 16:34 34.29797 35.75705 36919 ft 541 kts 96°
2026-04-23 16:34 34.29328 35.84749 36934 ft 542 kts 95°
2026-04-23 16:35 34.28954 35.93871 36935 ft 543 kts 95°
2026-04-23 16:35 34.28577 36.02934 36349 ft 536 kts 94°
2026-04-23 16:36 34.28424 36.07428 35417 ft 532 kts 94°
2026-04-23 16:36 34.28277 36.11895 34002 ft 533 kts 93°
2026-04-23 16:36 34.28124 36.16382 32312 ft 535 kts 93°
2026-04-23 16:36 34.27966 36.20896 30645 ft 536 kts 93°
2026-04-23 16:37 34.27807 36.25353 28865 ft 536 kts 92°
2026-04-23 16:37 34.27646 36.29835 27243 ft 531 kts 93°
2026-04-23 16:37 34.27485 36.34239 26442 ft 520 kts 93°
2026-04-23 16:37 34.27323 36.38590 25767 ft 515 kts 93°
2026-04-23 16:38 34.27161 36.42889 25099 ft 510 kts 94°
2026-04-23 16:38 34.26999 36.47171 24434 ft 506 kts 94°
2026-04-23 16:38 34.26772 36.51396 23774 ft 501 kts 99°
2026-04-23 16:38 34.25918 36.55420 23195 ft 489 kts 115°
2026-04-23 16:39 34.24260 36.58934 22656 ft 477 kts 131°
2026-04-23 16:39 34.21933 36.61712 22131 ft 465 kts 148°
2026-04-23 16:39 34.19146 36.63550 21618 ft 451 kts 164°
2026-04-23 16:39 34.16131 36.64327 21163 ft 437 kts 181°
2026-04-23 16:40 34.13189 36.64018 20704 ft 424 kts 197°
2026-04-23 16:40 34.10453 36.62805 20244 ft 415 kts 210°
2026-04-23 16:40 34.08031 36.60956 19809 ft 409 kts 218°
2026-04-23 16:40 34.05751 36.58907 19367 ft 407 kts 219°
2026-04-23 16:41 34.03440 36.56936 18895 ft 406 kts 214°
2026-04-23 16:41 34.00882 36.55502 18426 ft 408 kts 201°
2026-04-23 16:41 33.98101 36.54810 17970 ft 409 kts 190°
2026-04-23 16:41 33.95312 36.54445 17490 ft 407 kts 189°
2026-04-23 16:42 33.92492 36.54117 16975 ft 403 kts 189°
2026-04-23 16:42 33.89708 36.53791 16248 ft 400 kts 189°
2026-04-23 16:42 33.86955 36.53465 15577 ft 394 kts 189°
2026-04-23 16:42 33.84248 36.53141 14926 ft 388 kts 189°
2026-04-23 16:43 33.81579 36.52789 14269 ft 383 kts 190°
2026-04-23 16:43 33.78943 36.52422 13579 ft 379 kts 190°
2026-04-23 16:43 33.76338 36.52059 12787 ft 376 kts 189°
2026-04-23 16:43 33.73788 36.51708 11718 ft 363 kts 189°
2026-04-23 16:44 33.71283 36.51363 10778 ft 364 kts 189°
2026-04-23 16:44 33.68782 36.51171 10231 ft 351 kts 179°
2026-04-23 16:44 33.66519 36.51902 9945 ft 328 kts 158°
2026-04-23 16:44 33.64753 36.53532 9497 ft 316 kts 135°
2026-04-23 16:45 33.63664 36.55760 8976 ft 307 kts 117°
2026-04-23 16:45 33.62867 36.58102 8267 ft 300 kts 115°
2026-04-23 16:45 33.62114 36.60381 7600 ft 295 kts 115°
2026-04-23 16:45 33.61365 36.62638 6941 ft 289 kts 115°
2026-04-23 16:46 33.60610 36.64863 6220 ft 286 kts 115°
2026-04-23 16:46 33.59852 36.67060 5493 ft 283 kts 115°
2026-04-23 16:46 33.58907 36.69098 4747 ft 276 kts 132°
2026-04-23 16:46 33.57430 36.70497 4206 ft 268 kts 157°
2026-04-23 16:47 33.55709 36.71035 3963 ft 241 kts 186°
2026-04-23 16:47 33.54308 36.70339 3924 ft 206 kts 226°
2026-04-23 16:47 33.53620 36.68942 3931 ft 187 kts 247°
2026-04-23 16:47 33.53175 36.67548 3950 ft 178 kts 249°
2026-04-23 16:48 33.52735 36.66159 3950 ft 178 kts 249°
2026-04-23 16:48 33.52177 36.64888 3864 ft 167 kts 235°
2026-04-23 16:48 33.51469 36.63841 3764 ft 157 kts 230°
2026-04-23 16:48 33.50741 36.62860 3534 ft 158 kts 229°
2026-04-23 16:49 33.50259 36.62212 3458 ft 158 kts 229°
2026-04-23 16:49 33.49298 36.60919 3441 ft 146 kts 230°
2026-04-23 16:49 33.48661 36.60063 3430 ft 129 kts 230°
2026-04-23 16:49 33.48077 36.59275 3315 ft 125 kts 230°
2026-04-23 16:50 33.47502 36.58496 3165 ft 125 kts 229°
2026-04-23 16:50 33.46925 36.57716 3003 ft 125 kts 229°
2026-04-23 16:50 33.46355 36.56947 2832 ft 124 kts 229°
2026-04-23 16:50 33.45784 36.56176 2702 ft 124 kts 228°
2026-04-23 16:51 33.45208 36.55400 2514 ft 126 kts 228°
2026-04-23 16:51 33.44612 36.54596 2344 ft 128 kts 228°
2026-04-23 16:51 33.44222 36.54070 2225 ft 128 kts 228°
2026-04-23 16:51 33.43426 36.53010 2042 ft 124 kts 226°
2026-04-23 16:52 33.42913 36.52308 2008 ft 98 kts 229°
2026-04-23 16:52 33.42585 36.51867 2009 ft 42 kts 229°
2026-04-23 16:52 33.42416 36.51638 2007 ft 19 kts 228°
2026-04-23 16:52 33.42362 36.51577 2007 ft 18 kts 216°
2026-04-23 16:53 33.42244 36.51509 2009 ft 19 kts 199°
2026-04-23 16:53 33.42131 36.51461 2009 ft 17 kts 199°
2026-04-23 16:53 33.42034 36.51391 2005 ft 14 kts 212°
2026-04-23 16:53 33.41955 36.51315 2005 ft 14 kts 230°
2026-04-23 16:54 33.41888 36.51235 2004 ft 12 kts 205°
2026-04-23 16:54 33.41828 36.51265 2003 ft 11 kts 139°
2026-04-23 16:54 33.41762 36.51334 2006 ft 14 kts 139°
2026-04-23 16:54 33.41679 36.51407 2003 ft 15 kts 159°
2026-04-23 16:55 33.41579 36.51403 2006 ft 15 kts 185°
2026-04-23 16:55 33.41467 36.51396 2003 ft 17 kts 184°
2026-04-23 16:55 33.41369 36.51382 2004 ft 11 kts 204°
2026-04-23 16:55 33.41327 36.51332 2002 ft 3 kts 229°
2026-04-23 16:56 33.41325 36.51330 2002 ft 0 kts 229°
2026-04-23 16:56 33.41320 36.51323 2002 ft 0 kts 229°